DateTimeUTC,F1_A11,F1_S11,BsB_S11,BsG_S11,BsR_S11,BbsB_S11,BbsG_S11,BbsR_S11,BaB_A11,BaG_A11,BaR_A11,Tu_S11,T_S11,Uu_S11,U_S11,P_S11,T1_A11
2021-01-01T20:00:00Z,00000200,21000000,,,,,,,-000.05,-000.30,-000.45,16.7,23.9,,00.0,0641.4,30.9
2021-01-01T20:01:00Z,00000200,21000000,,,,,,,-000.18,-000.08,-000.03,16.7,23.9,,00.0,0641.5,30.9
2021-01-01T20:02:00Z,00000200,21000000,,,,,,,0000.01,-000.13,0000.28,16.7,23.9,,00.0,0641.5,30.9
2021-01-01T20:03:00Z,00000200,61000000,,,,,,,-000.04,-000.01,-000.05,16.7,24.0,,00.0,0641.5,30.9
2021-01-01T20:04:00Z,00000200,41000000,-000.06,-000.17,-000.00,0000.12,0000.45,0000.04,0000.19,0000.13,0000.10,16.9,23.8,,00.0,0642.3,30.9
2021-01-01T20:05:00Z,00000200,01000000,0000.73,0000.17,0000.16,0000.08,0000.19,0000.20,0000.12,0000.23,-000.04,17.0,23.7,,00.0,0642.3,30.9
2021-01-01T20:06:00Z,00000200,01000000,0000.20,-000.00,-000.10,-000.33,0000.27,0000.08,-000.03,-000.13,0000.07,16.9,23.7,,00.0,0642.3,30.9
2021-01-01T20:07:00Z,00000200,01000000,-000.28,0000.50,0000.19,0000.05,0000.18,0000.07,0000.35,0000.27,-000.05,16.9,23.7,,00.0,0642.3,30.9
2021-01-01T20:08:00Z,00000200,01000000,-000.05,-000.02,0000.02,-000.29,0000.31,0000.09,0000.12,0000.25,0000.12,16.9,23.7,,00.0,0642.3,30.9
2021-01-01T20:09:00Z,00000200,01000000,0000.17,-000.14,-000.18,0000.31,0000.09,0000.23,0000.39,0000.22,0000.47,16.9,23.7,,00.0,0642.3,30.9
2021-01-01T20:10:00Z,00000200,01000000,0000.21,-000.05,0000.13,-000.04,-000.24,0000.10,0000.01,0000.00,-000.00,16.9,23.6,,00.0,0642.3,30.9
2021-01-01T20:11:00Z,00000200,01000000,0000.21,0000.16,0000.12,-000.20,0000.26,0000.19,0000.40,0000.21,0000.49,16.9,23.6,,00.0,0642.3,30.9
2021-01-01T20:12:00Z,00000200,01000000,0000.52,-000.15,-000.10,0000.15,0000.15,0000.09,0000.45,0000.54,0000.33,16.9,23.6,,00.0,0642.3,30.9
2021-01-01T20:13:00Z,00000200,01000000,-000.30,0000.17,-000.28,-000.16,-000.02,-000.16,-000.19,0000.04,-000.18,17.0,23.7,,00.0,0642.3,30.9
2021-01-01T20:14:00Z,00000200,01000000,-000.29,0000.13,-000.13,-000.01,0000.27,0000.18,0000.48,0000.24,0000.17,17.0,23.7,,00.0,0642.4,30.9
2021-01-01T20:15:00Z,00000200,01000000,0000.15,0000.20,0000.27,0000.45,0000.21,0000.02,-000.13,0000.10,0000.01,17.1,23.7,,00.0,0642.4,30.9
2021-01-01T20:16:00Z,00000200,01000000,0000.08,-000.02,0000.11,0000.15,0000.39,0000.05,0000.17,-000.05,0000.29,17.1,23.7,,00.0,0642.4,30.9
2021-01-01T20:17:00Z,00000200,01000000,0000.61,0000.08,0000.09,0000.09,0000.23,0000.21,0000.23,0000.41,0000.36,17.0,23.7,,00.0,0642.4,30.9
2021-01-01T20:18:00Z,00000200,01000000,0000.09,0000.23,0000.21,-000.02,-000.07,0000.15,0000.28,0000.13,-000.13,17.0,23.7,,00.0,0642.4,30.9
2021-01-01T20:19:00Z,00000200,01000000,0000.48,0000.05,0000.05,0000.40,0000.19,0000.05,-000.12,0000.16,-000.08,17.0,23.7,,00.0,0642.4,30.9
2021-01-01T20:20:00Z,00000200,01000000,0000.20,0000.21,0000.04,-000.16,0000.22,0000.24,0000.04,-000.11,0000.02,17.0,23.7,,00.0,0642.4,30.9
2021-01-01T20:21:00Z,00000200,01000000,0000.80,-000.03,-000.12,0000.06,0000.29,0000.20,0000.63,0000.37,0000.19,17.0,23.7,,00.0,0642.5,30.9
2021-01-01T20:22:00Z,00000200,01000000,-000.28,0000.16,-000.11,-000.30,0000.33,0000.02,-000.51,-000.00,0000.30,17.0,23.6,,00.0,0642.5,30.9
2021-01-01T20:23:00Z,00000200,01000000,-000.36,-000.14,0000.19,0000.05,0000.09,0000.26,0000.25,-000.15,0000.11,16.9,23.6,,00.0,0642.5,30.9
2021-01-01T20:24:00Z,00000200,01000000,0000.15,-000.24,-000.16,-000.31,0000.23,-000.10,0000.56,0000.68,0000.26,16.9,23.6,,00.0,0642.5,30.9
2021-01-01T20:25:00Z,00000200,01000000,0000.49,0000.35,0000.10,0000.58,0000.16,0000.06,-000.03,0000.01,-000.13,16.9,23.6,,00.0,0642.5,30.9
2021-01-01T20:26:00Z,00000200,01000000,0000.38,0000.40,0000.05,0000.12,0000.28,0000.24,-000.01,0000.29,0000.18,16.9,23.6,,00.0,0642.5,30.9
2021-01-01T20:27:00Z,00000200,01000000,-000.17,0000.36,0000.08,0000.12,0000.04,0000.07,0000.67,0000.18,0000.29,17.0,23.6,,00.0,0642.6,30.9
2021-01-01T20:28:00Z,00000200,01000000,0000.38,-000.11,0000.23,-000.34,-000.02,0000.10,-000.49,-000.23,-000.16,17.1,23.6,,00.0,0642.6,30.9
2021-01-01T20:29:00Z,00000200,01000000,-000.24,-000.15,-000.27,-000.06,0000.19,0000.14,0000.20,0000.42,0000.18,17.2,23.7,,00.0,0642.6,30.9
2021-01-01T20:30:00Z,00000200,01000000,-000.31,-000.02,-000.13,-000.15,0000.25,-000.16,0000.11,-000.28,0000.03,17.2,23.7,,00.0,0642.6,30.9
2021-01-01T20:31:00Z,00000200,01000000,-000.04,0000.14,-000.04,0000.32,0000.07,0000.14,-000.09,-000.25,-000.02,17.2,23.7,,00.0,0642.7,30.9
2021-01-01T20:32:00Z,00000200,01000000,0000.55,0000.25,-000.03,-000.19,0000.21,0000.06,-000.00,-000.04,-000.50,17.2,23.7,,00.0,0642.9,30.9
2021-01-01T20:33:00Z,00000200,01000000,0000.32,-000.02,0000.04,-000.34,0000.22,0000.30,-000.12,0000.33,0000.55,17.2,23.7,,00.0,0643.0,30.9
2021-01-01T20:34:00Z,00000200,01000000,0000.09,0000.29,-000.00,0000.20,0000.29,0000.11,0000.24,-000.14,-000.26,17.1,23.7,,00.0,0643.0,30.9
2021-01-01T20:35:00Z,00000200,01000000,0000.39,0000.05,-000.14,0000.34,0000.24,-000.02,0000.21,0000.12,-000.17,17.1,23.7,,00.0,0643.1,30.9
2021-01-01T20:36:00Z,00000200,01000000,0000.62,0000.10,0000.06,0000.07,0000.19,-000.26,-000.08,-000.02,0000.04,17.1,23.7,,00.0,0643.1,30.9
2021-01-01T20:37:00Z,00000200,01000000,0000.45,-000.23,-000.05,0000.41,0000.15,-000.09,0000.07,0000.10,-000.19,17.1,23.7,,00.0,0643.1,30.9
2021-01-01T20:38:00Z,00000200,01000000,0000.12,0000.13,-000.02,-000.11,0000.02,-000.21,-000.15,-000.14,0000.19,17.1,23.7,,00.0,0643.1,30.9
2021-01-01T20:39:00Z,00000200,01000000,0000.43,-000.05,-000.29,0000.23,0000.01,-000.15,-000.00,-000.10,-000.11,17.0,23.7,,00.0,0643.1,30.9
2021-01-01T20:40:00Z,00000200,01000000,0000.20,-000.02,-000.06,0000.36,0000.13,0000.10,-000.12,0000.10,-000.13,17.0,23.7,,00.0,0643.1,30.9
2021-01-01T20:41:00Z,00000200,01000000,0000.20,0000.03,-000.17,0000.38,0000.12,-000.13,0000.27,0000.02,-000.04,17.0,23.7,,00.0,0643.1,30.9
2021-01-01T20:42:00Z,00000200,01000000,0000.16,0000.28,-000.08,-000.00,0000.22,0000.16,-000.10,-000.41,-000.01,17.0,23.7,,00.0,0643.1,30.9
2021-01-01T20:43:00Z,00000200,01000000,0000.19,0000.09,-000.05,0000.04,0000.50,-000.32,-000.01,0000.29,-000.21,17.0,23.6,,00.0,0643.1,30.9
2021-01-01T20:44:00Z,00000200,01000000,0000.63,0000.09,-000.05,-000.37,0000.05,0000.06,0000.10,0000.02,0000.04,17.0,23.6,,00.0,0643.1,30.9
2021-01-01T20:45:00Z,00000200,01000000,0000.11,0000.04,-000.02,-000.39,0000.27,0000.23,0000.05,-000.01,0000.05,16.9,23.6,,00.0,0643.2,30.9
2021-01-01T20:46:00Z,00000200,01000000,0000.13,0000.01,-000.03,-000.24,0000.11,-000.01,0000.21,0000.13,-000.11,16.9,23.6,,00.0,0643.2,30.9
2021-01-01T20:47:00Z,00000200,01000000,-000.33,-000.08,0000.24,0000.43,0000.29,0000.05,-000.41,-000.15,-000.10,16.9,23.6,,00.0,0643.2,30.9
2021-01-01T20:48:00Z,00000200,01000000,0000.12,-000.24,0000.13,0000.18,0000.10,0000.26,0000.24,-000.12,0000.11,16.9,23.6,,00.0,0643.2,30.9
2021-01-01T20:49:00Z,00000200,01000000,0000.47,0000.05,0000.01,-000.06,-000.03,0000.14,-000.09,-000.02,-000.13,16.9,23.6,,00.0,0643.2,30.9
2021-01-01T20:50:00Z,00000200,01000000,-000.23,0000.40,-000.14,-000.21,0000.10,0000.07,0000.11,0000.20,-000.02,16.9,23.6,,00.0,0643.1,30.9
2021-01-01T20:51:00Z,00000200,01000000,0000.22,0000.10,-000.11,-000.19,0000.03,0000.24,-000.33,-000.23,0000.07,16.9,23.6,,00.0,0643.1,30.9
2021-01-01T20:52:00Z,00000200,01000000,0000.40,-000.03,0000.13,-000.08,0000.16,-000.13,0000.56,0000.32,0000.13,16.8,23.6,,00.0,0643.1,30.9
2021-01-01T20:53:00Z,00000200,01000000,0000.43,0000.20,0000.05,0000.46,-000.02,-000.10,-000.02,0000.02,-000.31,16.8,23.5,,00.0,0643.1,30.9
2021-01-01T20:54:00Z,00000200,01000000,0000.07,0000.32,-000.16,0000.16,0000.14,0000.18,0000.30,-000.08,0000.29,16.8,23.5,,00.0,0643.1,30.9
2021-01-01T20:55:00Z,00000200,01000000,0000.27,-000.13,0000.26,0000.02,-000.07,0000.27,-000.27,-000.18,-000.10,16.8,23.5,,00.0,0643.1,30.9
2021-01-01T20:56:00Z,00000200,01000000,0000.67,0000.03,0000.01,-000.16,0000.26,-000.05,0000.27,0000.48,0000.09,16.8,23.5,,00.0,0643.1,30.9
2021-01-01T20:57:00Z,00000200,41000000,,,,,,,0000.50,0000.85,0000.84,16.9,23.5,,00.0,0643.1,30.9
2021-01-01T20:58:00Z,00000200,61000000,,,,,,,-000.20,-000.57,-000.39,16.6,23.7,,00.0,0642.2,30.9
2021-01-01T20:59:00Z,00000200,21000000,,,,,,,-000.34,-000.60,-000.28,16.6,23.8,,00.0,0642.1,30.9
